User: anonymous   Login
Location: Unspecified
(0.0000°N, 0.0000°E)
Time: 18:06:33
(UTC+00:00)
Language:

LilacSat-2 - Orbit

View from above orbital plane
View from above orbital plane
View from above satellite
View from above satellite

Ground track
Ground track

The orbit data is extracted from the following two-line orbital elements,

1 40908U 15049K   22334.12979104  .00003013  00000-0  15605-3 0  9994
2 40908  97.5222 333.2422 0015362 155.7048 267.3304 15.16879278397598
Epoch (UTC): 30 November 2022 03:06:53
Eccentricity: 0.0015362
inclination: 97.5222°
perigee height: 504 km
apogee height: 526 km
right ascension of ascending node: 333.2422°
argument of perigee: 155.7048°
revolutions per day: 15.16879278
mean anomaly at epoch: 267.3304°
orbit number at epoch: 39759

The dashed part of the orbit path shows where the satellite is in the earth's shadow,  

DLR